GW3786 Weather Reports


time (UTC)temp
F
wind
direction
speed
knots
gust
knots
rain 1hr
in
rain 24hr
in
rain mn
in
humidity
%
barometer
mb
20260508135551 53 231 0.9 5.2 0.00 0.00 0.00 69 1012.9
20260508133349 52 214 1.7 5.2 0.00 0.00 0.00 68 1012.7
20260508131846 51 199 1.7 7.8 0.00 0.00 0.00 68 1012.7
20260508130347 51 255 1.7 7.0 0.00 0.00 0.00 70 1012.8
20260508124846 49 288 1.7 5.2 0.00 0.00 0.00 72 1012.8
20260508123347 49 244 1.7 6.1 0.00 0.00 0.00 72 1012.7
20260508121847 48 310 1.7 8.7 0.00 0.00 0.00 74 1012.5
20260508120346 47 236 1.7 5.2 0.00 0.00 0.00 75 1012.7
20260508114842 46 141 0.9 4.3 0.00 0.00 0.00 76 1012.4
20260508114031 45 203 0.9 4.3 0.00 0.00 0.00 77 1012.3
20260508111840 45 212 0.9 3.5 0.00 0.00 0.00 77 1012.2
20260508110340 44 198 0.0 3.5 0.00 0.00 0.00 79 1012.1
20260508104840 43 269 0.0 6.1 0.00 0.00 0.00 81 1012.1
20260508103341 42 181 0.0 3.5 0.00 0.00 0.00 82 1011.8
20260508101840 42 173 0.9 3.5 0.00 0.00 0.00 82 1011.6
20260508101741 42 148 0.0 4.3 0.00 0.00 0.00 83 1011.5
20260508094836 42 142 0.0 1.7 0.00 0.00 0.00 84 1011.6
20260508094047 42 139 0.0 2.6 0.00 0.00 0.00 86 1011.7
20260508091836 41 151 0.0 0.9 0.00 0.00 0.00 87 1011.8
20260508090333 41 225 0.0 1.7 0.00 0.00 0.00 87 1011.9
20260508084832 41 169 0.0 0.9 0.00 0.00 0.00 86 1012.1
20260508083332 42 170 0.9 1.7 0.00 0.00 0.00 86 1012.1
20260508081830 42 165 0.9 1.7 0.00 0.00 0.00 85 1012.1
20260508080330 43 172 0.0 1.7 0.00 0.00 0.00 83 1012.1
20260508074830 45 156 0.0 0.9 0.00 0.00 0.00 82 1012.2
20260508073327 46 156 0.0 0.9 0.00 0.00 0.00 80 1012.1
20260508072522 46 119 0.0 0.0 0.00 0.00 0.00 77 1012.3
20260508071032 46 119 0.0 0.9 0.00 0.00 0.00 76 1012.8
20260508064822 47 118 0.0 3.5 0.00 0.00 0.00 75 1012.8
20260508063322 47 263 0.9 3.5 0.00 0.00 0.00 74 1013.3
20260508062518 47 230 0.9 5.2 0.00 0.00 0.00 74 1013.2
20260508060322 46 248 1.7 7.0 0.00 0.00 0.00 75 1013.5
20260508054821 45 288 0.0 1.7 0.00 0.00 0.00 83 1013.4
20260508053322 45 158 0.0 0.9 0.00 0.00 0.00 81 1012.5
20260508051821 45 158 0.0 0.9 0.00 0.00 0.00 80 1012.5
20260508050321 45 158 0.9 1.7 0.00 0.00 0.00 80 1012.4
20260508044817 44 181 0.0 0.9 0.00 0.00 0.00 81 1012.7
20260508043318 44 168 0.9 1.7 0.00 0.00 0.00 80 1012.7
20260508041817 44 166 0.0 1.7 0.00 0.00 0.00 82 1012.8
20260508040319 44 168 0.9 1.7 0.00 0.00 0.00 81 1012.8
20260508034817 44 211 0.0 1.7 0.00 0.00 0.00 80 1013.0
20260508034707 44 156 0.0 0.9 0.00 0.00 0.00 80 1012.9
20260508031816 44 191 0.0 0.0 0.00 0.00 0.00 81 1013.0
20260508030316 44 191 0.0 0.9 0.00 0.00 0.00 78 1012.8
20260508024814 44 163 0.0 0.9 0.00 0.00 0.00 80 1012.9
20260508023314 44 163 0.0 0.9 0.00 0.00 0.00 78 1012.8
20260508021815 44 163 0.0 0.9 0.00 0.00 0.00 74 1012.7
20260508020312 44 163 0.9 1.7 0.00 0.00 0.00 75 1012.9
20260508014809 45 164 0.0 0.0 0.00 0.00 0.00 77 1012.7
20260508014010 45 164 0.0 0.9 0.00 0.00 0.00 74 1012.5
20260508011807 45 164 0.0 0.9 0.00 0.00 0.00 72 1012.5
20260508010307 46 164 0.9 0.9 0.00 0.00 0.00 70 1012.3
20260508004806 47 164 0.0 0.9 0.00 0.00 0.00 67 1012.4
20260508003304 48 164 0.9 1.7 0.00 0.00 0.00 60 1012.2
20260508001804 50 187 0.0 1.7 0.00 0.00 0.00 54 1012.1
20260508000305 52 248 0.9 3.5 0.00 0.00 0.00 50 1012.1
20260507234804 54 203 0.9 7.0 0.00 0.00 0.00 48 1012.0
20260507233304 54 276 1.7 5.2 0.00 0.00 0.00 49 1011.9
20260507232503 54 345 1.7 5.2 0.00 0.00 0.00 49 1011.9
20260507230304 53 293 2.6 8.7 0.00 0.00 0.00 50 1012.1
20260507224805 55 295 2.6 9.6 0.00 0.00 0.00 47 1012.0
20260507223303 55 288 2.6 6.1 0.00 0.00 0.00 50 1012.1
20260507223156 54 315 3.5 7.8 0.00 0.00 0.00 51 1012.2
20260507220959 52 285 4.3 8.7 0.00 0.00 0.00 52 1012.2
20260507214759 53 307 4.3 12.2 0.00 0.00 0.00 51 1012.0
20260507213259 54 290 5.2 13.0 0.00 0.00 0.00 48 1011.9
20260507211759 54 292 7.0 13.9 0.00 0.00 0.00 48 1011.7
20260507210259 54 224 5.2 17.4 0.00 0.00 0.00 51 1011.8
20260507205457 54 298 5.2 13.9 0.00 0.00 0.00 51 1011.6
20260507203300 53 312 7.0 14.8 0.00 0.00 0.00 51 1011.6
20260507201759 53 308 4.3 12.2 0.00 0.00 0.00 52 1011.8
20260507200300 53 279 5.2 10.4 0.00 0.00 0.00 53 1011.7
20260507194759 54 222 3.5 8.7 0.00 0.00 0.00 54 1011.8
20260507193259 52 267 6.1 11.3 0.00 0.00 0.00 53 1011.8
20260507191758 53 280 3.5 10.4 0.00 0.00 0.00 56 1011.9
20260507190253 52 353 3.5 13.0 0.00 0.00 0.00 59 1012.0
20260507184754 52 316 4.3 12.2 0.00 0.00 0.00 57 1012.0
20260507183253 52 293 4.3 11.3 0.00 0.00 0.00 58 1012.1
20260507181753 54 304 4.3 12.2 0.00 0.00 0.00 58 1012.0
20260507180253 53 298 4.3 11.3 0.00 0.00 0.00 57 1012.0
20260507174752 53 196 4.3 10.4 0.00 0.00 0.00 57 1012.2
20260507173246 53 252 4.3 12.2 0.00 0.00 0.00 57 1012.3
20260507171747 52 229 5.2 10.4 0.00 0.00 0.00 56 1012.7
20260507170246 52 264 4.3 11.3 0.00 0.00 0.00 58 1012.7
20260507164747 52 164 3.5 11.3 0.00 0.00 0.00 55 1012.9
20260507163247 52 302 4.3 9.6 0.00 0.00 0.00 56 1012.8
20260507161748 51 216 4.3 8.7 0.00 0.00 0.00 57 1012.7
20260507160247 51 290 3.5 9.6 0.00 0.00 0.00 59 1012.7
20260507154747 51 295 3.5 11.3 0.00 0.00 0.00 62 1012.8
20260507153952 51 300 4.3 9.6 0.00 0.00 0.00 62 1012.8
20260507152441 51 283 3.5 9.6 0.00 0.00 0.00 63 1012.5
20260507150950 50 279 2.6 9.6 0.00 0.00 0.00 59 1012.7
20260507145455 49 285 3.5 7.8 0.00 0.00 0.00 64 1012.5
20260507143246 49 271 2.6 6.1 0.00 0.00 0.00 64 1012.7
20260507141747 48 302 2.6 7.0 0.00 0.00 0.00 68 1012.8
20260507141647 47 302 1.7 6.1 0.00 0.00 0.00 69 1012.9